Regional Weather Roundup
Issued by NWS Newport/Morehead, NC

Current Version | Previous Version | Text Only | Print | Product List | Glossary Off
Versions: 1 2 3 4 5 6 7 8 9 10 11 12 13 14 15 16 17 18 19 20 21 22 23 24 25 26 27 28 29 30 31 32 33 34 35 36 37 38 39 40 41 42 43 44 45 46 47 48 49 50
100 ASUS42 KMHX 190325 RWRMHX WEATHER ROUNDUP FOR EASTERN NORTH CAROLINA NATIONAL WEATHER SERVICE NEWPORT/MOREHEAD CITY NC 1100 PM EDT WED OCT 18 2017 NOTE: "FAIR" INDICATES FEW OR NO CLOUDS BELOW 12,000 FEET WITH NO SIGNIFICANT WEATHER AND/OR OBSTRUCTIONS TO VISIBILITY NCZ015>017-031-032-045>047-102-103-190400- NORTH COAST CITY SKY/WX TMP DP RH WIND PRES REMARKS EDENTON CLEAR 54 52 94 CALM 30.33F ELIZABETH CITY CLEAR 60 56 86 N7 30.33F KITTY HAWK CLEAR 64 55 75 CALM 30.30S MANTEO CLEAR N/A N/A N/A NE5 30.31F $$ NCZ045>047-081-094-103-104-190400- CENTRAL COAST CITY SKY/WX TMP DP RH WIND PRES REMARKS FRISCO PTCLDY 66 61 84 NE7 30.29S $$ NCZ095-097-098-100-101-190400- SOUTHERN COAST CITY SKY/WX TMP DP RH WIND PRES REMARKS BEAUFORT CLEAR 62 57 83 NE9 30.28S CEDAR ISLAND NOT AVBL JACKSONVILLE CLEAR 60 57 89 NE8 30.29S PINEY ISLAND N/A N/A N/A N/A NE9 30.28F WILMINGTON CLEAR 59 52 77 N3 30.29S $$ NCZ011>013-027>030-043-044-078>080-089-090>093-098-190400- COASTAL PLAIN CITY SKY/WX TMP DP RH WIND PRES REMARKS AHOSKIE CLEAR 49 49 99 CALM 30.33F CLINTON CLEAR 53 51 95 CALM 30.32R ELIZABETHTOWN NOT AVBL GOLDSBORO CLEAR 54 49 84 CALM 30.30S GREENVILLE CLEAR 55 54 94 CALM 30.32S HAVELOCK PTCLDY 62 58 86 NE12 30.30 KENANSVILLE CLEAR 50 48 93 CALM 30.31S KINSTON CLEAR 53 52 95 CALM 30.32S NEW BERN CLEAR 58 56 93 N3 30.31F RICHLANDS CLEAR 52 51 97 CALM 30.30F ROCKY MOUNT CLEAR 49 49 100 CALM 30.32F FOG WASHINGTON CLEAR 55 52 89 NE3 30.32S WHITEVILLE CLEAR 58 50 74 CALM 30.29S $$ AMZ130-135-150-152-154-156-158-170-250-252-270-ANZ085-086-088-633-658-670-190400- MARINE OBSERVATIONS STATION/POSITION TIME TEMP WIND PRES WAVE SWELL AIR SEA DIR/SP/G HT/PER HT/PER (UTC) (F) (DEG/KT/KT) (MB) (FT/S) (FT/S) CHESAPEAKE LIGHT NOT AVBL 64 E VA BEACH 0250 66 67 90/ 8/ 10 1027.3 4/ 8 3/ 8 DUCK 0300 66 69 50/ 8/ 9 1026.2 2 E DUCK 0300 70 N/A 3/ 8 2/11 OREGON INLET 0300 66 65 40/ 9/ 12 1026.0 13E OREGON INLT 0248 71 N/A 5/ 8 5/ 8 HATTERAS CG 0300 67 68 40/ 8/ 11 1025.3 DIAMOND BUOY 0250 74 82 90/ 10/ 14 1024.8 6/10 5/10 CAPE LOOKOUT 0300 65 10/ 11/ 13 1024.9 BEAUFORT LAB 0300 63 69 20/ 8/ 10 1025.6 30 SE NEW RVR IN 0308 71 40/ 19/ 23 1024.3 30 SE NEW RVR IN NOT AVBL 27 SE WRIGHTSVLE 0308 70 77 50/ 17/ 23 1024.3 5 SE WRIGHTSVLE 0308 69 74 40/ 16/ 23 1025.0 225 S CAPE HAT 0250 77 80 70/ 19/ 23 1020.4 9/ 7 3/ 9 41 SE CHARLESTON 0310 74 79 40/ 19/ 25 1022.8 $$

USA.gov is the U.S. government's official web portal to all federal, state and local government web resources and services.